Location: Bodest
(46.3000°N, 22.5667°E)
Time: 01:13:25
(UTC+00:00)

FENGYUN 1C DEB - Pass Details

Date: 09 April 2023
Orbit: 806 x 916 km, 98.8° (Epoch: 29 May)

Event Time Altitude Azimuth Distance (km) Brightness Sun altitude
Rises 18:59:29 0° 198° (SSW) 3,530 ? -18.4°
Reaches altitude 10° 19:02:19 10° 211° (SSW) 2,583 ? -18.8°
Maximum altitude 19:07:03 26° 267° (W) 1,693 ? -19.5°
Drops below altitude 10° 19:11:44 10° 322° (NW) 2,549 ? -20.1°
Sets 19:14:32 0° 335° (NNW) 3,474 ? -20.5°
